Theta_e
328 327 328 329 328 326 324 325 323 325 326 326 326 324 320 317 320 320 320 320 320 319 318 314 312 311 311 309 306 301 300 300
330 330 330 330 329 325 317 319 322 324 324 324 324 320 318 321 320 320 319 318 317 313 312 312 311 311 308 303 301 301 298 298
330 331 330 329 328 324 321 317 320 324 325 323 320 318 320 321 320 319 317 314 312 312 312 311 310 307 304 302 301 299 297 298
328 329 329 328 328 327 327 325 324 326 326 323 320 320 323 321 319 318 316 313 312 312 310 309 309 309 303 302 302 300 298 298
325 327 328 328 328 328 329 328 327 327 326 323 321 323 323 321 319 318 314 312 312 311 310 310 309 306 304 303 301 298 295 298
324 324 325 327 328 329 330 328 328 326 326 325 323 325 322 319 318 315 313 313 312 311 310 308 306 304 303 302 299 293 293 295
327 327 328 328 329 330 329 329 328 327 326 325 324 323 321 319 317 315 314 311 309 307 306 305 304 303 300 297 294 293 293 296
328 329 330 331 331 330 330 329 327 327 325 324 323 322 321 319 317 315 313 310 307 306 307 305 300 300 296 294 293 292 293 295
330 330 330 331 331 331 329 327 327 325 324 324 323 323 321 319 317 314 309 307 307 304 302 302 298 296 295 294 293 293 294 294
331 330 331 331 330 329 328 328 328 325 325 323 322 320 316 314 311 308 307 304 304 304 302 298 297 296 296 295 293 294 295 295
330 331 331 331 329 326 326 327 327 325 323 320 319 316 313 311 309 307 305 304 303 300 300 299 298 297 297 296 295 294 295 295
329 330 330 329 328 326 325 325 325 324 322 320 319 317 315 312 308 306 303 302 301 302 301 298 298 298 298 297 296 294 295 294
329 329 329 328 327 326 325 324 324 322 320 319 318 316 314 311 306 302 305 303 302 299 298 298 298 298 297 297 295 294 295 294
328 328 327 326 325 322 323 324 321 321 319 317 316 314 311 308 306 306 306 303 300 298 298 298 298 297 297 296 294 295 294 294
327 326 325 324 323 322 323 322 320 319 317 317 316 314 310 308 306 304 305 299 300 299 298 297 296 297 296 294 295 294 294 294
323 322 322 322 322 322 322 320 319 318 317 314 311 309 306 304 302 301 299 299 298 296 295 295 295 294 293 294 294 294 294 293
316 318 322 321 320 320 320 319 319 318 316 312 308 305 302 303 301 299 298 298 299 295 295 294 294 293 294 294 294 294 293 293
314 315 316 320 321 320 320 319 318 317 313 308 306 304 303 302 301 297 297 296 295 294 294 293 293 293 294 294 294 293 293 292
313 313 313 315 318 320 319 318 317 312 308 306 304 302 302 298 296 296 298 298 296 294 293 293 292 293 294 293 293 292 292 292
Wind_Speed
35 35 32 27 32 32 34 34 31 28 29 27 25 21 19 14 9 9 9 14 14 13 12 10 8 9 12 14 16 16 17 18
37 36 35 36 35 32 35 35 33 31 32 31 27 23 17 11 9 12 14 13 12 12 9 7 10 12 14 15 15 16 18 17
40 40 40 38 35 32 29 32 33 32 29 28 26 23 16 11 11 13 13 12 11 8 8 11 13 14 16 15 16 17 18 17
42 45 44 41 40 34 28 29 31 30 28 28 27 23 17 18 16 16 15 12 10 9 12 13 14 17 16 16 18 20 20 18
41 42 44 44 40 34 30 27 28 29 28 32 30 25 25 22 19 16 16 13 13 15 14 14 17 16 16 17 20 22 19 19
44 43 43 43 39 35 32 28 23 26 29 33 31 26 22 21 21 19 18 19 19 17 14 14 16 17 18 20 22 20 17 17
42 39 36 36 36 32 32 30 24 26 27 34 32 27 23 24 26 24 22 21 18 15 14 15 17 18 21 22 20 18 17 15
38 36 33 33 34 28 29 24 26 27 29 31 31 30 28 28 29 28 25 22 19 17 18 18 21 20 20 19 17 17 16 16
39 37 35 33 32 27 23 26 26 28 30 30 30 32 33 30 30 27 22 19 19 19 17 19 20 17 18 17 18 16 15 16
36 34 36 34 28 22 24 27 26 28 29 27 29 30 28 26 24 20 18 17 15 17 16 15 19 22 18 18 20 18 20 20
31 31 31 28 23 22 26 25 28 28 30 28 26 27 26 24 23 19 16 16 16 14 14 18 18 20 22 21 23 20 21 24
27 26 27 25 22 22 24 27 29 30 33 32 30 27 24 22 19 18 17 16 14 19 15 14 19 23 22 23 25 22 24 25
30 31 31 30 28 27 28 29 33 36 36 34 32 29 26 25 21 19 21 20 21 12 13 17 20 21 22 25 25 23 25 28
35 35 36 37 36 33 35 36 36 37 36 34 33 29 28 23 24 27 25 20 13 10 15 17 18 22 23 25 21 24 26 26
38 39 39 39 38 37 39 39 35 34 35 37 36 36 29 27 28 25 15 11 10 9 14 16 22 21 24 22 22 25 26 24
30 33 38 41 41 41 41 38 34 35 35 36 33 25 22 26 22 14 14 12 8 8 14 17 22 20 26 24 24 25 26 25
9 6 20 36 38 37 39 38 38 38 38 36 25 18 18 14 12 12 12 14 14 7 17 22 21 25 23 26 24 25 25 25
13 10 7 4 14 26 31 35 39 38 35 29 23 23 22 22 16 13 10 1 7 16 20 20 25 24 24 25 23 24 24 22
6 7 8 4 6 19 29 31 32 29 24 19 18 19 15 13 11 5 9 13 13 10 20 25 23 21 21 23 23 23 23 24
Wind_Direction
184 182 181 181 183 186 191 193 193 194 196 202 204 204 206 223 268 266 221 202 198 204 218 234 259 284 291 303 308 312 319 323
183 189 188 188 188 188 192 194 196 199 205 208 211 210 221 257 250 210 205 202 205 216 227 255 282 292 306 312 321 322 321 323
187 192 192 194 193 193 196 199 201 203 209 210 211 216 238 246 237 202 203 204 217 234 258 281 293 305 311 314 316 319 320 319
187 192 196 196 198 200 204 202 207 207 209 210 211 222 238 230 220 213 208 212 221 240 256 272 297 312 308 307 315 318 315 312
188 195 198 201 204 205 208 209 208 211 214 214 217 226 239 231 218 220 222 224 228 246 270 297 299 297 300 305 308 307 305 307
193 198 203 204 206 208 213 207 213 217 219 217 222 231 238 221 215 220 214 217 234 249 265 278 283 284 287 293 299 297 302 304
195 199 198 200 202 212 207 205 209 211 216 213 220 221 224 217 217 217 215 221 233 242 252 265 275 284 294 299 299 304 308 302
196 194 194 199 203 220 202 208 209 209 207 210 214 219 224 225 223 220 217 226 225 236 254 263 283 286 294 306 307 306 301 292
199 203 205 206 210 212 216 204 202 205 207 212 216 223 225 224 220 215 219 226 230 245 274 277 282 296 308 312 313 312 312 312
198 204 207 209 213 210 207 202 206 210 216 215 216 212 207 203 206 217 227 225 250 267 279 293 308 310 314 321 317 310 311 308
202 206 207 210 213 204 201 210 210 216 215 220 216 208 209 218 227 229 230 250 272 273 291 300 308 306 313 317 317 306 306 302
200 204 205 212 211 213 214 208 212 218 221 228 230 226 225 234 236 239 245 257 257 274 311 294 294 305 305 308 311 300 296 300
214 218 217 217 222 221 218 218 218 221 227 234 235 236 240 241 235 238 254 245 265 291 273 279 290 294 294 298 305 296 297 306
209 208 212 218 221 225 222 221 223 224 227 233 234 235 235 230 233 244 248 255 257 257 278 281 286 291 292 304 302 296 299 305
217 216 218 221 225 228 220 219 223 223 227 231 233 231 226 233 232 235 252 214 242 271 289 290 298 294 301 304 298 295 298 301
228 226 225 228 225 224 223 224 224 227 229 225 222 218 215 213 217 240 197 236 243 309 298 301 294 303 308 293 290 295 297 297
87 70 245 241 234 235 230 226 221 223 222 219 210 209 204 227 204 212 238 245 272 302 289 290 300 295 290 293 289 291 291 294
65 59 61 241 256 249 240 231 223 221 217 210 209 207 213 215 229 215 236 236 324 281 286 285 281 284 289 290 289 288 293 289
44 24 18 41 229 240 230 223 217 207 201 200 201 202 208 184 190 180 354 319 289 295 279 285 294 289 294 294 289 291 291 291